Location: Brodeslavy
(49.9527°N, 13.5567°E)
Time: 21:04:24
(UTC+00:00)

Okean-O - Pass Details

Date: 17 June 2025
Orbit: 628 x 631 km, 98.0° (Epoch: 16 July)

Event Time Altitude Azimuth Distance (km) Brightness Sun altitude
Exits shadow 20:14:29 - 183° (S) 2,846 5.5 -7.3°
Reaches altitude 10° 20:16:36 10° 191° (S) 2,008 4.8 -7.5°
Maximum altitude 20:20:45 41° 262° (W) 913 3.7 -7.9°
Drops below altitude 10° 20:24:56 10° 333° (NNW) 2,022 6.8 -8.3°
Sets 20:27:15 0° 341° (NNW) 2,935 7.7 -8.6°
